Weather in Yarag-Kazmalyar

Russia / Republic of Dagestan     41°38′48″N   48°23′09″E
temp.,
°C
wind,
m/s
gust,
m/s
humid.,
%
clouds,
%
prec.,
mm/h
press.,
hPa
HPBL,
m
15 april, thu
thu1500:00+10s227998 0.0 101615
03:00+9sse3576100 0.0 101776
06:00+10s38792 0.0 1017187
09:00+16se67570 0.0 1018873
12:00+18ese66495 0.0 10171222
15:00+17se6652100 0.0 1017991
18:00+13sse4765100 0.0 1018245
21:00+11s2273100 0.0 101831
16 april, fri
fri1600:00+12ssw2269100 0.0 101712
03:00+11sw2169100 0.0 101810
06:00+12wsw116714 0.0 101911
09:00+19ne22435 0.0 1019648
12:00+19e54434 0.0 1018958
15:00+19ese554069 0.0 1018835
18:00+14sse367076 0.3 1019164
21:00+11sse22735 0.4 101925
17 april, sat
sat1700:00+11sse22749 0.0 101814
03:00+10ssw01760 0.0 101810
06:00+11ssw017299 0.0 101810
09:00+17ne224917 0.0 1017377
12:00+18n5551100 0.0 1017496
15:00+15n61055100 0.0 1019480
18:00+13wnw2261100 0.0 102037
21:00+13wsw226049 0.0 102117
18 april, sun
sun1800:00+13wnw2264100 0.0 102126
03:00+12nw3878100 0.0 1021215
06:00+11nw5982100 0.0 1022459
09:00+15n3366100 0.0 1021867
12:00+16ne436392 0.0 1019871
15:00+16ne436461 0.0 1018640
18:00+12n2381100 0.0 1020132
21:00+11nnw2284100 0.1 102073
19 april, mon
mon1900:00+11nnw1295100 2.8 1021104
03:00+11wnw229591 2.8 102263
06:00+11wnw1293100 0.0 102386
09:00+14n227789 0.0 1023441
12:00+16nne226787 0.0 1023792
15:00+16ne4366100 0.0 1023609
18:00+13nne1277100 0.0 1024167
21:00+11e128396 0.0 102484